User: anonymous   Login
Location: Bonnesvalyn
(49.1218°N, 3.3177°E)
Time: 00:01:18
(UTC+00:00)
Language:

Iridium 2 - Orbit

View from above orbital plane
View from above orbital plane
View from above satellite
View from above satellite

Ground track
Ground track

The orbit data is extracted from the following two-line orbital elements,

1 25527U 98066A   23154.58547754  .00015350  00000-0  45980-3 0  9993
2 25527  85.5233 180.0479 0005284  10.1399 349.9956 15.34373809349082
Epoch (UTC): 03 June 2023 14:03:05
Eccentricity: 0.0005284
inclination: 85.5233°
perigee height: 459 km
apogee height: 466 km
right ascension of ascending node: 180.0479°
argument of perigee: 10.1399°
revolutions per day: 15.34373809
mean anomaly at epoch: 349.9956°
orbit number at epoch: 34908

The dashed part of the orbit path shows where the satellite is in the earth's shadow,  

DLR